[Iaude] MPEC M01: 2024 LH5 [a=1.01,e=0.45,i=0.9,H=24.3]

mpec at cfa.harvard.edu mpec at cfa.harvard.edu
Sun Jun 16 00:58:04 EDT 2024


M.P.E.C. 2024-M01                                 Issued 2024 June 16, 04:56 UT

     The Minor Planet Electronic Circulars contain information on unusual
         minor planets, routine data on comets and natural satellites,
         and occasional editorial announcements.  They are published
    on behalf of Division F of the International Astronomical Union by the
          Minor Planet Center, Smithsonian Astrophysical Observatory,
                          Cambridge, MA 02138, U.S.A.
			  
             Prepared using the Tamkin Foundation Computer Network

                              MPC at CFA.HARVARD.EDU
            URL https://www.minorplanetcenter.net/    ISSN 1523-6714

                                    2024 LH5                                    


Observations:
     K24L05H* C2024 06 14.39077516 30 04.192-18 36 34.80         20.91wXEM001F52
     K24L05H  C2024 06 14.39869816 30 02.458-18 36 33.53         21.24wXEM001F52
     K24L05H  C2024 06 14.40662616 30 00.718-18 36 31.86         21.54wXEM001F52
     K24L05H  C2024 06 14.46624816 29 47.747-18 36 18.94         20.87GVEM001F51
     K24L05H  C2024 06 14.46689316 29 47.588-18 36 18.93         21.32GVEM001F51
     K24L05H KC2024 06 15.22344716 27 28.595-18 34 13.58         21.66GVEM001I52
     K24L05H KC2024 06 15.22654116 27 27.961-18 34 13.69         20.16GVEM001I52
     K24L05H KC2024 06 15.22962816 27 27.299-18 34 11.68         21.98GVEM001I52
     K24L05H KC2024 06 15.23271616 27 26.701-18 34 11.46         21.27GVEM001I52
     K24L05H 1C2024 06 15.43664316 26 48.804-18 33 26.83         20.73GVEM001T12
     K24L05H 1C2024 06 15.44131316 26 47.891-18 33 26.12         20.82GVEM001T12
     K24L05H KC2024 06 16.16608 16 24 48.48 -18 31 35.0          22.3 RVEM001291
     K24L05H KC2024 06 16.17388 16 24 47.12 -18 31 34.2          21.5 RVEM001291
     K24L05H KC2024 06 16.18168 16 24 45.71 -18 31 33.5          21.7 RVEM001291

Observer details:
291 LPL/Spacewatch II.  Observer T. H. Bressi.  1.8-m f/2.7 reflector + CCD.
F51 Pan-STARRS 1, Haleakala.  Observers J. Herman, T. Lowe, P. Minguez, A.
    Schultz, I. Smith.  Measurers K. Chambers, T. de Boer, J. Fairlamb, H.
    Gao, M. Huber, C.-C. Lin, E. Magnier, Y. Ramanjooloo, R. Wainscoat, R.
    Weryk.  1.8-m Ritchey-Chretien + CCD.
F52 Pan-STARRS 2, Haleakala.  Observers J. Herman, T. Lowe, P. Minguez, A.
    Schultz, I. Smith.  Measurers K. Chambers, T. de Boer, J. Fairlamb, H.
    Gao, M. Huber, C.-C. Lin, E. Magnier, Y. Ramanjooloo, R. Wainscoat, R.
    Weryk.  1.8-m Ritchey-Chretien + CCD.
I52 Steward Observatory, Mt. Lemmon Station.  Observer J. K. Hogan.  Measurers
    T. Beuden, V. F. Carvajal, D. Fay, J. B. Fazekas, D. C. Fuls, A. R. Gibbs,
    A. D. Grauer, H. Groeller, J. K. Hogan, R. A. Kowalski, S. M. Larson, G.
    J. Leonard, D. Rankin, R. L. Seaman, F. C. Shelly, K. W. Wierzchos.  1.0-m
    prime focus + CCD.
T12 University of Hawaii 88-inch telescope, Maunakea.  Observer Y.
    Ramanjooloo.  Measurers R. Weryk, Y. Ramanjooloo, J. Fairlamb, R.
    Wainscoat.  2.24-m f/10.1 reflector + CCD.

Orbital elements:
2024 LH5                                                 Earth MOID = 0.0032 AU
Epoch 2024 Mar. 31.0 TT = JDT 2460400.5                 MPC                     
M  12.87983              (2000.0)            P               Q                  
n   0.97065851     Peri.  255.02694     -0.61810922     -0.78599175             
a   1.0102412      Node   233.15820     +0.72712598     -0.56559515             
e   0.4480566      Incl.    0.89984     +0.29871192     -0.24963792             
P   1.02           H   24.32          G   0.15           U   8                  
Residuals in seconds of arc
240614 F52  0.1-  0.1+    240615 I52  0.4+  1.2-    240615 T12  0.0   0.1-
240614 F52  0.0   0.1-    240615 I52 (0.1+  1.8-)   240616 291  0.3-  0.0
240614 F52  0.0   0.0     240615 I52  0.5-  0.2-    240616 291  0.2+  0.1-
240614 F51  0.2+  0.0     240615 I52  0.3-  0.5-    240616 291  0.1+  0.2-
240614 F51  0.1-  0.2-    240615 T12  0.0   0.2+

Ephemeris:
2024 LH5                 a,e,i = 1.01, 0.45, 1                   q = 0.5576
Date    TT    R. A. (2000) Decl.     Delta      r    Elong.  Phase     V
2024 05 17    00 34 28.9 +05 05 35   0.07165 0.9632    46.3   130.6    24.3
...
2024 06 01    18 17 56.9 -18 48 34   0.06834 1.0768   156.0    22.5    19.7
...
2024 06 09    16 54 10.9 -18 55 56   0.1170  1.1317   174.7     4.8    20.3
...
2024 06 15    16 28 08.6 -18 34 09   0.1597  1.1700   163.9    13.9    21.5
2024 06 16    16 25 14.1 -18 31 23   0.1672  1.1762   162.3    15.2    21.6
2024 06 17    16 22 37.3 -18 28 55   0.1747  1.1823   160.7    16.5    21.8
...
2024 06 23    16 11 40.8 -18 20 01   0.2217  1.2174   152.5    22.6    22.6
...
2024 07 01    16 05 23.8 -18 21 29   0.2886  1.2605   143.5    28.7    23.4
...
2024 07 16    16 07 34.2 -18 52 03   0.4254  1.3297   129.8    35.9    24.6

                      (Last issue was M.P.E.C. 2024-L149)                       

A. U. Tomatic                (C) Copyright 2024 MPC           M.P.E.C. 2024-M01





More information about the Iaude mailing list